Data for 06/07/2018

Time Sea-Level Adjusted Pressure Absolute Pressure Temperature Relative Humidity Dew Point   
(mb) (inHg) (mb) (inHg) (C) (F) (%) (C) (F)
00:05 1016 30 845 24.95 16.4 61.5 65 9.9 49.8
00:10 1016 30 845 24.95 16.4 61.5 65 9.9 49.9
00:15 1016 30 845 24.95 16.2 61.2 66 10 50.1
00:20 1016 30 845 24.95 16 60.7 68 10 50.1
00:25 1016 30 845 24.95 15.6 60 70 10.3 50.5
00:30 1016 30 845 24.95 15.2 59.4 72 10.3 50.5
00:35 1016 30 845 24.95 15.1 59.2 73 10.3 50.6
00:40 1016 30 845 24.95 15.1 59.2 73 10.4 50.7
00:45 1016 30 845 24.95 15.1 59.1 74 10.5 50.9
00:50 1016 30 845 24.95 15 59 74 10.5 50.8
00:55 1016 30 845 24.95 15.1 59.1 74 10.4 50.8
01:00 1016 30 845 24.95 15.2 59.3 73 10.3 50.6
01:05 1016 30 845 24.95 15.4 59.7 72 10.4 50.7
01:10 1016 30 845 24.95 15.3 59.6 73 10.5 51
01:15 1016 30 845 24.95 15.1 59.2 73 10.4 50.8
01:20 1016 30 845 24.95 14.9 58.7 75 10.4 50.8
01:25 1016 30 845 24.95 14.6 58.3 76 10.4 50.7
01:30 1016 30 845 24.95 14.5 58 77 10.4 50.8
01:35 1016 30 845 24.95 14.1 57.3 79 10.4 50.8
01:40 1016 30 845 24.95 14 57.1 79 10.3 50.6
01:45 1016 30 845 24.95 14 57.2 78 10.3 50.5
01:50 1016 30 845 24.95 13.9 57 79 10.4 50.8
01:55 1016 30 845 24.95 13.8 56.8 80 10.4 50.7
02:00 1016 30 845 24.95 13.7 56.6 80 10.4 50.6
02:05 1016 30 845 24.95 13.8 56.8 80 10.5 50.9
02:10 1016 30 845 24.95 13.8 56.8 81 10.6 51
02:15 1016 30 845 24.95 13.8 56.9 80 10.5 50.9
02:20 1016 30 845 24.95 13.9 57 80 10.5 50.8
02:25 1016 30 845 24.95 14 57.2 79 10.5 50.8
02:30 1016 30 845 24.95 14.1 57.3 79 10.5 51
02:35 1016 30 845 24.95 13.9 57.1 80 10.5 51
02:40 1016 30 845 24.95 14 57.3 79 10.4 50.8
02:45 1016 30 846 24.98 14 57.2 79 10.4 50.7
02:50 1016 30 846 24.98 14.1 57.4 77 10.1 50.2
02:55 1016 30 846 24.98 14.3 57.7 76 10.1 50.2
03:00 1016 30 846 24.98 14.3 57.7 75 9.9 49.9
03:05 1017 30.03 846 24.98 14.3 57.7 76 10.2 50.4
03:10 1017 30.03 846 24.98 14.1 57.4 76 10 50.1
03:15 1017 30.03 846 24.98 13.9 57.1 77 10 50
03:20 1017 30.03 846 24.98 13.9 56.9 76 9.8 49.6
03:25 1017 30.03 846 24.98 13.8 56.8 77 9.8 49.7
03:30 1017 30.03 846 24.98 13.7 56.7 76 9.7 49.4
03:35 1017 30.03 846 24.98 13.7 56.6 76 9.5 49.1
03:40 1016 30 846 24.98 13.7 56.7 77 9.8 49.6
03:45 1016 30 846 24.98 13.6 56.4 78 9.8 49.6
03:50 1016 30 846 24.98 13.4 56.1 78 9.6 49.3
03:55 1016 30 846 24.98 13.3 55.9 78 9.6 49.3
04:00 1017 30.03 846 24.98 13.2 55.8 78 9.5 49.1
04:05 1017 30.03 846 24.98 13.3 55.9 78 9.5 49.1
04:10 1016 30 846 24.98 13.3 55.9 77 9.4 48.9
04:15 1016 30 846 24.98 13.1 55.5 79 9.5 49
04:20 1016 30 845 24.95 12.7 54.8 81 9.6 49.2
04:25 1016 30 845 24.95 12.4 54.3 81 9.2 48.6
04:30 1016 30 845 24.95 12.5 54.5 80 9.2 48.6
04:35 1016 30 846 24.98 12.5 54.4 81 9.2 48.6
04:40 1016 30 846 24.98 12.4 54.4 81 9.3 48.7
04:45 1017 30.03 846 24.98 12.5 54.5 80 9.2 48.5
04:50 1017 30.03 846 24.98 12.7 54.8 79 9.1 48.4
04:55 1017 30.03 846 24.98 12.9 55.2 77 9.1 48.3
05:00 1017 30.03 846 24.98 13.1 55.7 77 9.3 48.7
05:05 1017 30.03 846 24.98 13 55.3 78 9.3 48.7
05:10 1017 30.03 846 24.98 12.9 55.3 78 9.2 48.5
05:15 1017 30.03 846 24.98 13 55.5 77 9.2 48.6
05:20 1017 30.03 846 24.98 13.2 55.8 75 8.9 48.1
05:25 1017 30.03 846 24.98 13.3 55.9 75 9 48.2
05:30 1017 30.03 846 24.98 13.1 55.7 76 9 48.2
05:35 1017 30.03 846 24.98 13.2 55.8 74 8.8 47.8
05:40 1017 30.03 846 24.98 13.5 56.3 72 8.7 47.6
05:45 1017 30.03 846 24.98 13.9 56.9 71 8.8 47.8
05:50 1017 30.03 846 24.98 14 57.2 74 9.4 48.9
05:55 1017 30.03 846 24.98 14 57.1 73 9.3 48.7
06:00 1017 30.03 846 24.98 13.9 57.1 76 9.9 49.8
06:05 1017 30.03 846 24.98 13.3 55.9 80 10 50
06:10 1017 30.03 846 24.98 12.8 55 83 9.9 49.8
06:15 1017 30.03 846 24.98 12.6 54.6 85 10.1 50.1
06:20 1018 30.06 847 25.01 12.7 54.9 83 10 50
06:25 1018 30.06 847 25.01 12.8 55.1 80 9.5 49.2
06:30 1018 30.06 847 25.01 12.9 55.2 77 9 48.1
06:35 1018 30.06 847 25.01 12.8 55.1 81 9.7 49.4
06:40 1018 30.06 847 25.01 12.6 54.6 80 9.2 48.5
06:45 1018 30.06 847 25.01 12.5 54.4 82 9.5 49.2
06:50 1018 30.06 847 25.01 12.7 54.8 81 9.5 49.1
06:55 1018 30.06 847 25.01 12.8 55 81 9.6 49.3
07:00 1018 30.06 847 25.01 12.8 55.1 81 9.7 49.4
07:05 1018 30.06 847 25.01 12.8 55 82 9.9 49.7
07:10 1018 30.06 847 25.01 12.8 55 82 9.8 49.6
07:15 1018 30.06 847 25.01 12.6 54.7 83 9.8 49.6
07:20 1018 30.06 847 25.01 12.5 54.5 82 9.6 49.2
07:25 1018 30.06 847 25.01 12.3 54.1 84 9.8 49.6
07:30 1018 30.06 847 25.01 12.1 53.9 86 9.8 49.7
07:35 1018 30.06 847 25.01 12.1 53.7 86 9.8 49.7
07:40 1018 30.06 847 25.01 12 53.7 85 9.5 49.2
07:45 1018 30.06 847 25.01 12.2 54 83 9.4 48.9
07:50 1018 30.06 847 25.01 12.4 54.4 81 9.3 48.7
07:55 1018 30.06 847 25.01 12.6 54.6 81 9.5 49.1
08:00 1018 30.06 847 25.01 12.6 54.6 81 9.4 48.9
08:05 1018 30.06 847 25.01 12.9 55.1 80 9.5 49.1
08:10 1018 30.06 847 25.01 13.2 55.7 80 9.8 49.6
08:15 1018 30.06 847 25.01 13.3 55.9 80 9.9 49.8
08:20 1017 30.03 847 25.01 13.5 56.2 79 9.9 49.8
08:25 1017 30.03 847 25.01 13.8 56.9 78 10 50.1
08:30 1017 30.03 847 25.01 14 57.2 77 10.1 50.2
08:35 1017 30.03 846 24.98 14.6 58.2 73 9.9 49.8
08:40 1017 30.03 847 25.01 14.9 58.7 72 9.9 49.7
08:45 1017 30.03 847 25.01 15.5 59.8 72 10.4 50.8
08:50 1017 30.03 847 25.01 16.5 61.7 68 10.6 51
08:55 1017 30.03 847 25.01 16.7 62 68 10.8 51.5
09:00 1017 30.03 847 25.01 17.1 62.7 66 10.7 51.3
09:05 1018 30.06 847 25.01 17.6 63.7 63 10.5 50.9
09:10 1018 30.06 847 25.01 18.3 64.9 60 10.5 50.8
09:15 1018 30.06 847 25.01 18.9 66 57 10.2 50.4
09:20 1018 30.06 847 25.01 19.1 66.4 54 9.8 49.6
09:25 1018 30.06 847 25.01 19.4 66.8 55 10.2 50.4
09:30 1018 30.06 847 25.01 18.8 65.8 57 10.2 50.3
09:35 1018 30.06 847 25.01 18.4 65 58 10.2 50.3
09:40 1018 30.06 847 25.01 18.2 64.7 57 9.7 49.4
09:45 1017 30.03 847 25.01 18.8 65.8 56 10 50
09:50 1017 30.03 847 25.01 18.3 64.9 59 10.2 50.3
09:55 1017 30.03 847 25.01 19.3 66.8 52 9.5 49.1
10:00 1017 30.03 847 25.01 20.3 68.6 50 9.7 49.4
10:05 1017 30.03 846 24.98 20.1 68.2 49 9.2 48.5
10:10 1017 30.03 846 24.98 20.4 68.7 48 9.2 48.5
10:15 1017 30.03 846 24.98 20.4 68.7 48 9.1 48.3
10:20 1017 30.03 846 24.98 20.7 69.3 46 9 48.2
10:25 1017 30.03 846 24.98 20.7 69.3 48 9.3 48.8
10:30 1017 30.03 846 24.98 19.5 67 49 8.6 47.5
10:35 1017 30.03 846 24.98 20 68 46 8.3 46.9
10:40 1017 30.03 846 24.98 20.9 69.7 46 9.1 48.4
10:45 1017 30.03 846 24.98 21.4 70.6 40 7.5 45.5
10:50 1017 30.03 846 24.98 22.1 71.7 40 7.9 46.3
10:55 1017 30.03 846 24.98 22 71.6 42 8.6 47.5
11:00 1017 30.03 846 24.98 22 71.6 40 8.1 46.6
11:05 1017 30.03 846 24.98 22.3 72.1 39 8 46.4
11:10 1017 30.03 846 24.98 22.1 71.8 39 7.7 45.9
11:15 1017 30.03 846 24.98 21.7 71.1 38 7 44.7
11:20 1017 30.03 846 24.98 22.3 72.2 31 4.7 40.4
11:25 1017 30.03 846 24.98 23 73.4 30 4.8 40.7
11:30 1017 30.03 846 24.98 22.3 72.1 35 6.4 43.6
11:35 1017 30.03 846 24.98 22.2 72 34 5.6 42.1
11:40 1017 30.03 846 24.98 22.9 73.2 33 6 42.8
11:45 1017 30.03 846 24.98 23.1 73.6 33 6.1 43
11:50 1017 30.03 846 24.98 23 73.4 33 6.2 43.1
11:55 1017 30.03 846 24.98 23.3 74 32 5.9 42.7
12:00 1017 30.03 846 24.98 23.4 74.2 32 5.9 42.6
12:05 1017 30.03 846 24.98 22.7 72.9 32 5.2 41.3
12:10 1017 30.03 846 24.98 21.3 70.3 32 4.2 39.6
12:15 1017 30.03 846 24.98 21.7 71.1 32 4.6 40.3
12:20 1017 30.03 846 24.98 21.9 71.5 32 4.8 40.7
12:25 1017 30.03 846 24.98 22.3 72.1 33 5.6 42.1
12:30 1016 30 846 24.98 22 71.5 37 6.9 44.4
12:35 1016 30 846 24.98 21.4 70.6 36 6.1 42.9
12:40 1016 30 845 24.95 21.3 70.4 36 6 42.8
12:45 1016 30 845 24.95 22.3 72.1 33 5.5 41.9
12:50 1016 30 845 24.95 22.6 72.7 34 6.2 43.1
12:55 1016 30 846 24.98 22.4 72.3 35 6.2 43.1
13:00 1016 30 846 24.98 22.4 72.4 34 5.8 42.5
13:05 1016 30 845 24.95 23.7 74.6 32 6 42.8
13:10 1016 30 846 24.98 23.6 74.5 34 7.2 44.9
13:15 1016 30 846 24.98 23.3 74 32 6.1 43
13:20 1016 30 846 24.98 23.3 74 35 7.2 45
13:25 1016 30 845 24.95 22.1 71.7 36 6.6 43.9
13:30 1016 30 845 24.95 22.2 72 36 6.7 44
13:35 1016 30 845 24.95 22.7 72.9 35 6.6 43.8
13:40 1016 30 845 24.95 22.5 72.5 40 8.3 46.9
13:45 1016 30 845 24.95 21.3 70.4 43 8.4 47.1
13:50 1016 30 845 24.95 21.4 70.5 43 8.6 47.5
13:55 1016 30 845 24.95 21.6 70.9 43 8.5 47.3
14:00 1016 30 845 24.95 22.4 72.3 38 7.5 45.5
14:05 1016 30 845 24.95 22.9 73.3 39 8.3 47
14:10 1016 30 845 24.95 22.5 72.6 36 7 44.6
14:15 1016 30 845 24.95 22.8 73.1 36 7.3 45.2
14:20 1016 30 845 24.95 23.4 74.1 33 6.5 43.8
14:25 1016 30 845 24.95 23.5 74.3 32 5.9 42.7
14:30 1016 30 845 24.95 23.7 74.7 32 6.2 43.2
14:35 1015 29.97 845 24.95 23.9 75 32 6.6 43.8
14:40 1015 29.97 845 24.95 23.2 73.7 34 6.6 43.9
14:45 1015 29.97 845 24.95 23.5 74.3 33 6.6 44
14:50 1015 29.97 845 24.95 23.5 74.4 34 7.1 44.8
14:55 1015 29.97 845 24.95 23.3 73.9 34 6.9 44.5
15:00 1015 29.97 844 24.92 23.1 73.7 36 7.4 45.3
15:05 1015 29.97 844 24.92 22.8 73 37 7.5 45.5
15:10 1015 29.97 844 24.92 22.8 73 36 7.3 45.2
15:15 1015 29.97 844 24.92 22.9 73.2 36 7.2 45
15:20 1015 29.97 844 24.92 23 73.3 35 6.8 44.2
15:25 1015 29.97 845 24.95 23.1 73.5 34 6.4 43.5
15:30 1015 29.97 845 24.95 23.2 73.7 34 6.5 43.7
15:35 1015 29.97 845 24.95 23.3 73.9 35 7.3 45.1
15:40 1016 30 845 24.95 23.2 73.7 37 7.9 46.2
15:45 1016 30 845 24.95 23 73.4 37 7.6 45.6
15:50 1016 30 845 24.95 23.2 73.7 35 7 44.7
15:55 1016 30 845 24.95 23.3 73.9 34 6.8 44.3
16:00 1016 30 845 24.95 23.1 73.5 36 7.3 45.2
16:05 1016 30 845 24.95 23 73.4 37 7.6 45.7
16:10 1016 30 845 24.95 23 73.3 37 7.7 45.8
16:15 1016 30 845 24.95 22.9 73.2 39 8.2 46.8
16:20 1016 30 845 24.95 22.8 73 38 7.8 46
16:25 1016 30 845 24.95 22.6 72.6 42 9.1 48.3
16:30 1016 30 845 24.95 22 71.7 43 9 48.3
16:35 1016 30 846 24.98 21.6 70.9 45 9.3 48.8
16:40 1016 30 845 24.95 21.5 70.7 45 9.3 48.7
16:45 1016 30 845 24.95 21.5 70.6 46 9.4 49
16:50 1016 30 845 24.95 21.4 70.5 45 9.2 48.5
16:55 1016 30 845 24.95 21.4 70.6 44 8.7 47.6
17:00 1016 30 845 24.95 21.4 70.6 44 8.7 47.7
17:05 1016 30 846 24.98 21.5 70.7 41 7.8 46.1
17:10 1017 30.03 846 24.98 21.6 70.9 42 8.4 47.1
17:15 1017 30.03 846 24.98 21.2 70.1 46 9.1 48.4
17:20 1017 30.03 846 24.98 20.9 69.6 46 9 48.2
17:25 1017 30.03 846 24.98 20.7 69.3 49 9.9 49.8
17:30 1017 30.03 847 25.01 20.1 68.2 53 10.3 50.5
17:35 1017 30.03 847 25.01 19.1 66.4 52 9.2 48.6
17:40 1017 30.03 847 25.01 18.4 65 51 8.3 46.9
17:45 1017 30.03 847 25.01 17.8 64 52 7.9 46.3
17:50 1018 30.06 847 25.01 17.6 63.7 45 5.6 42
17:55 1018 30.06 847 25.01 17.3 63.1 53 7.8 46
18:00 1018 30.06 847 25.01 16.1 61.1 57 7.8 46
18:05 1018 30.06 847 25.01 16.2 61.2 57 7.6 45.8
18:10 1018 30.06 848 25.04 16.4 61.6 55 7.6 45.7
18:15 1018 30.06 848 25.04 16.7 62.1 52 6.9 44.5
18:20 1019 30.09 848 25.04 16.8 62.2 54 7.5 45.6
18:25 1019 30.09 848 25.04 16.4 61.5 56 7.6 45.8
18:30 1019 30.09 848 25.04 16.3 61.3 56 7.6 45.7
18:35 1019 30.09 848 25.04 16.2 61.1 61 8.7 47.7
18:40 1019 30.09 848 25.04 16 60.9 55 7.1 44.8
18:45 1019 30.09 848 25.04 16.4 61.6 51 6.4 43.5
18:50 1019 30.09 848 25.04 16.8 62.2 51 6.8 44.2
18:55 1019 30.09 848 25.04 16.8 62.2 52 7 44.7
19:00 1019 30.09 848 25.04 16.6 62 54 7.4 45.4
19:05 1019 30.09 848 25.04 16.5 61.6 55 7.6 45.7
19:10 1019 30.09 848 25.04 16.2 61.2 59 8.2 46.7
19:15 1019 30.09 848 25.04 15.9 60.7 60 8.3 47
19:20 1019 30.09 848 25.04 15.7 60.3 60 8 46.4
19:25 1019 30.09 848 25.04 15.8 60.4 57 7.3 45.1
19:30 1018 30.06 848 25.04 15.8 60.5 59 7.8 46
19:35 1018 30.06 847 25.01 15.5 59.8 61 8.1 46.7
19:40 1018 30.06 848 25.04 15.6 60.1 56 7.1 44.7
19:45 1018 30.06 848 25.04 15.8 60.5 57 7.5 45.5
19:50 1018 30.06 848 25.04 15.9 60.6 58 7.6 45.8
19:55 1018 30.06 847 25.01 15.8 60.4 55 6.9 44.5
20:00 1018 30.06 847 25.01 15.7 60.3 60 8.1 46.5
20:05 1018 30.06 847 25.01 15.6 60 60 8 46.4
20:10 1018 30.06 847 25.01 15.5 59.9 58 7.4 45.3
20:15 1018 30.06 847 25.01 15.4 59.7 63 8.4 47.1
20:20 1018 30.06 847 25.01 15 59 63 8.2 46.7
20:25 1018 30.06 847 25.01 14.8 58.7 63 7.9 46.1
20:30 1018 30.06 847 25.01 14.8 58.6 63 7.8 46.1
20:35 1018 30.06 847 25.01 14.6 58.4 65 8.3 46.9
20:40 1018 30.06 847 25.01 14.4 58 67 8.5 47.3
20:45 1018 30.06 847 25.01 14.2 57.6 67 8.3 47
20:50 1018 30.06 847 25.01 14.2 57.5 67 8.2 46.8
20:55 1018 30.06 847 25.01 14.4 57.9 65 7.9 46.2
21:00 1018 30.06 848 25.04 14.7 58.5 63 7.8 46
21:05 1019 30.09 848 25.04 14.9 58.9 62 7.8 46
21:10 1018 30.06 848 25.04 14.8 58.6 63 7.8 46
21:15 1018 30.06 848 25.04 14.5 58.1 63 7.5 45.5
21:20 1018 30.06 848 25.04 14.6 58.3 63 7.6 45.7
21:25 1019 30.09 848 25.04 14.5 58.2 64 7.9 46.1
21:30 1019 30.09 848 25.04 14.2 57.6 68 8.4 47
21:35 1019 30.09 848 25.04 13.7 56.7 69 8.1 46.6
21:40 1018 30.06 848 25.04 13.6 56.5 69 8.2 46.7
21:45 1018 30.06 848 25.04 13.5 56.3 69 7.9 46.3
21:50 1019 30.09 848 25.04 13.7 56.6 67 7.7 45.9
21:55 1019 30.09 848 25.04 13.8 56.8 67 7.8 46.1
22:00 1019 30.09 848 25.04 13.8 56.8 68 7.9 46.3
22:05 1019 30.09 848 25.04 13.5 56.2 70 8.1 46.6
22:10 1019 30.09 848 25.04 13 55.4 72 8.1 46.7
22:15 1019 30.09 848 25.04 12.7 54.8 73 8 46.4
22:20 1019 30.09 848 25.04 12.6 54.6 73 7.9 46.1
22:25 1019 30.09 848 25.04 12.8 55 72 7.9 46.1
22:30 1019 30.09 848 25.04 12.8 55 72 7.8 46.1
22:35 1019 30.09 848 25.04 12.7 54.9 70 7.5 45.5
22:40 1019 30.09 848 25.04 12.8 55 70 7.5 45.4
22:45 1019 30.09 848 25.04 12.8 55.1 70 7.5 45.5
22:50 1019 30.09 849 25.07 12.6 54.7 73 7.9 46.1
22:55 1019 30.09 848 25.04 12.1 53.9 74 7.7 45.9
23:00 1019 30.09 849 25.07 12.1 53.7 73 7.4 45.3
23:05 1019 30.09 848 25.04 12 53.5 75 7.7 45.8
23:10 1019 30.09 848 25.04 11.7 53.1 74 7.3 45.1
23:15 1019 30.09 848 25.04 11.5 52.6 75 7.2 45
23:20 1019 30.09 848 25.04 11.3 52.3 76 7.2 44.9
23:25 1019 30.09 848 25.04 11.1 52 78 7.4 45.3
23:30 1019 30.09 848 25.04 10.9 51.6 77 7.1 44.8
23:35 1019 30.09 848 25.04 10.9 51.6 76 6.9 44.5
23:40 1019 30.09 848 25.04 11.1 51.9 75 6.9 44.4
23:45 1019 30.09 848 25.04 11.1 52.1 76 7 44.6
23:50 1019 30.09 849 25.07 11 51.9 76 6.9 44.5
23:55 1019 30.09 848 25.04 11 51.9 75 6.8 44.3
24:00 1019 30.09 848 25.04 11.2 52.1 74 6.8 44.2